Regional Weather Roundup
Issued by NWS

Home | Current Version | Previous Version | Text Only | Print | Product List | Glossary Off
Versions: 1 2 3 4 5 6 7 8 9 10 11 12 13 14 15 16 17 18 19 20 21 22 23 24 25 26 27 28 29 30 31 32 33 34 35 36 37 38 39 40 41 42 43 44 45 46 47 48 49 50

000
ASUS43 KTOP 281008
RWRKS

WEATHER ROUNDUP FOR KANSAS
NATIONAL WEATHER SERVICE GOODLAND KS
400 AM CST FRI NOV 28 2014

NOTE:  "FAIR" INDICATES FEW OR NO CLOUDS BELOW 12,000 FEET WITH NO
SIGNIFICANT WEATHER AND/OR OBSTRUCTIONS TO VISIBILITY.

KSZ001>006-013>018-027>032-041>047-281100-
NORTHWEST KANSAS

CITY           SKY/WX    TMP DP  RH WIND       PRES   REMARKS
GOODLAND       PTCLDY    38  23  55 SW9       29.99F
HAYS           CLEAR     34  21  60 SW7       29.97F
HILL CITY      CLEAR     36  25  64 W7        29.96F
RUSSELL        CLEAR     33  25  72 SW12      29.96F WCI  24
$$

KSZ061>065-074>080-084>089-281100-
SOUTHWEST KANSAS

CITY           SKY/WX    TMP DP  RH WIND       PRES   REMARKS
DODGE CITY     PTCLDY    37  27  67 SW14      30.01F WCI  28
ELKHART          N/A     47  22  37 W8          N/A
GARDEN CITY    CLEAR     30  26  85 NW5       30.00F
GREAT BEND     CLEAR     37  25  60 SW9       30.00S
LIBERAL        PTCLDY    30  21  69 SW5       30.04S
PRATT          CLEAR     32  27  80 S10       30.02F WCI  24
$$

KSZ066>073-081>083-090>101-281100-
SOUTHEAST KANSAS

CITY           SKY/WX    TMP DP  RH WIND       PRES   REMARKS
CHANUTE        CLEAR     34  26  72 S13       30.13F WCI  25
COFFEYVILLE    CLEAR     39  27  62 S14       30.17F WCI  31
HUTCHINSON     CLEAR     35  26  69 S9        30.03F
MEDICINE LODGE   N/A     34  26  72 S3        30.05F
NEWTON         CLEAR     37  21  52 S18G25    30.05F WCI  27
PARSONS        CLEAR     37  27  67 S9        30.16F
WICHITA INTL   PTCLDY    36  24  62 S14       30.06F WCI  27
WICHITA JABRA  CLEAR     38  24  57 S18       30.05F WCI  28
WICHITA MCCONL CLEAR     37  24  60 S14       30.06F WCI  28
WINFIELD       CLEAR     39  25  57 S12       30.11F WCI  32
$$

KSZ007>012-019>026-033>040-048>060-102>105-281100-
NORTHEAST KANSAS

CITY           SKY/WX    TMP DP  RH WIND       PRES   REMARKS
CONCORDIA      PTCLDY    34  25  69 S6        29.96F
EMPORIA        CLEAR     31  23  72 S16       30.06F WCI  20
LAWRENCE       CLEAR     30  23  75 SE8       30.09F
MANHATTAN      CLEAR     31  23  72 SW8       30.01F
MARYSVILLE     CLEAR     32  23  69 S8        29.98F
OLATHE IND     CLEAR     32  22  66 S14       30.10F WCI  22
OLATHE EXE     CLEAR     32  23  69 S12       30.10F WCI  23
SALINA         CLEAR     37  26  64 S10       29.99F WCI  30
TOPEKA BILLARD CLEAR     36  24  62 S8        30.07F
TOPEKA FORBES  CLEAR     34  24  67 S12       30.05F WCI  25
$$



USA.gov is the U.S. government's official web portal to all federal, state and local government web resources and services.